AMBU16 YMEN-YHOT

Flight info

Callsign AMBU16
Flight time 0h 36m
Altitude 17000
Route BADGR YHOT YMBL YMAY AY V147 TEMIS W188 COLDS V512 ESDAN YMEN
Aircraft B350/L-SBGRW/S

Departure

Time 2026-04-18 04:21
Airport Melbourne Essendon Airport (YMEN)

Arrival

Time 2026-04-18 04:58
Airport Mount Hotham Airport (YHOT)
Time Latitude Longitude Altitude Speed Heading
2026-04-18 03:50 -37.72800 144.89192 266 ft 0 kts 151°
2026-04-18 04:18 -37.72832 144.89201 265 ft 8 kts 160°
2026-04-18 04:18 -37.72845 144.89297 265 ft 16 kts 98°
2026-04-18 04:18 -37.72873 144.89403 266 ft 11 kts 145°
2026-04-18 04:18 -37.72900 144.89500 266 ft 11 kts 97°
2026-04-18 04:19 -37.72917 144.89657 266 ft 24 kts 97°
2026-04-18 04:19 -37.72939 144.89858 266 ft 27 kts 98°
2026-04-18 04:19 -37.72923 144.90000 266 ft 14 kts 355°
2026-04-18 04:19 -37.72773 144.89991 266 ft 21 kts 358°
2026-04-18 04:20 -37.72648 144.89985 266 ft 15 kts 358°
2026-04-18 04:20 -37.72551 144.89981 264 ft 16 kts 358°
2026-04-18 04:20 -37.72393 144.89973 261 ft 19 kts 356°
2026-04-18 04:20 -37.72358 144.90043 262 ft 12 kts 89°
2026-04-18 04:21 -37.72399 144.90093 262 ft 11 kts 179°
2026-04-18 04:21 -37.72709 144.90108 268 ft 100 kts 178°
2026-04-18 04:21 -37.73605 144.90148 685 ft 142 kts 180°
2026-04-18 04:21 -37.74659 144.90191 1328 ft 156 kts 175°
2026-04-18 04:22 -37.75476 144.91029 2044 ft 172 kts 107°
2026-04-18 04:22 -37.75303 144.92576 2683 ft 181 kts 79°
2026-04-18 04:22 -37.74951 144.94098 3500 ft 182 kts 79°
2026-04-18 04:22 -37.74590 144.95756 3639 ft 208 kts 81°
2026-04-18 04:23 -37.74259 144.97571 3647 ft 212 kts 84°
2026-04-18 04:23 -37.73981 144.99411 3649 ft 214 kts 85°
2026-04-18 04:23 -37.73751 145.01260 3739 ft 213 kts 85°
2026-04-18 04:23 -37.73347 145.03000 4376 ft 204 kts 71°
2026-04-18 04:24 -37.72847 145.04677 4959 ft 204 kts 79°
2026-04-18 04:24 -37.72651 145.06443 5499 ft 204 kts 92°
2026-04-18 04:24 -37.72640 145.08247 6013 ft 207 kts 94°
2026-04-18 04:24 -37.72624 145.10086 6518 ft 211 kts 92°
2026-04-18 04:25 -37.72585 145.11957 7011 ft 214 kts 93°
2026-04-18 04:25 -37.72547 145.13853 7489 ft 217 kts 92°
2026-04-18 04:25 -37.72508 145.15770 7998 ft 220 kts 92°
2026-04-18 04:25 -37.72470 145.17713 8496 ft 223 kts 92°
2026-04-18 04:26 -37.72431 145.19655 8999 ft 225 kts 92°
2026-04-18 04:26 -37.72393 145.21647 9496 ft 228 kts 92°
2026-04-18 04:26 -37.72348 145.23667 9997 ft 232 kts 92°
2026-04-18 04:26 -37.72307 145.25711 10468 ft 234 kts 92°
2026-04-18 04:27 -37.72264 145.27782 10950 ft 237 kts 93°
2026-04-18 04:27 -37.72221 145.29864 11425 ft 239 kts 93°
2026-04-18 04:27 -37.72177 145.31974 11896 ft 242 kts 94°
2026-04-18 04:27 -37.72131 145.34111 12381 ft 244 kts 94°
2026-04-18 04:28 -37.72085 145.36270 12868 ft 247 kts 94°
2026-04-18 04:28 -37.72037 145.38448 13362 ft 250 kts 94°
2026-04-18 04:28 -37.71989 145.40656 13859 ft 253 kts 94°
2026-04-18 04:28 -37.71940 145.42884 14328 ft 255 kts 94°
2026-04-18 04:29 -37.71890 145.45126 14793 ft 256 kts 94°
2026-04-18 04:29 -37.71590 145.47371 15247 ft 264 kts 75°
2026-04-18 04:29 -37.70871 145.49513 15720 ft 267 kts 70°
2026-04-18 04:29 -37.70113 145.51668 16188 ft 269 kts 70°
2026-04-18 04:30 -37.69358 145.53841 16678 ft 271 kts 71°
2026-04-18 04:30 -37.68598 145.56032 17145 ft 274 kts 71°
2026-04-18 04:30 -37.67813 145.58287 17228 ft 283 kts 71°
2026-04-18 04:30 -37.67013 145.60579 17216 ft 289 kts 70°
2026-04-18 04:31 -37.66200 145.62906 17233 ft 297 kts 70°
2026-04-18 04:31 -37.65370 145.65293 17226 ft 295 kts 70°
2026-04-18 04:31 -37.64551 145.67620 17228 ft 286 kts 70°
2026-04-18 04:31 -37.63744 145.69903 17225 ft 283 kts 71°
2026-04-18 04:32 -37.62953 145.72158 17212 ft 280 kts 71°
2026-04-18 04:32 -37.62166 145.74405 17210 ft 280 kts 71°
2026-04-18 04:32 -37.61380 145.76646 17208 ft 279 kts 70°
2026-04-18 04:32 -37.60599 145.78873 17228 ft 278 kts 71°
2026-04-18 04:33 -37.59814 145.81102 17218 ft 278 kts 71°
2026-04-18 04:33 -37.59029 145.83328 17220 ft 278 kts 71°
2026-04-18 04:33 -37.58246 145.85558 17210 ft 278 kts 71°
2026-04-18 04:33 -37.57461 145.87786 17206 ft 278 kts 71°
2026-04-18 04:34 -37.56675 145.90011 17208 ft 278 kts 71°
2026-04-18 04:34 -37.55889 145.92237 17208 ft 277 kts 71°
2026-04-18 04:34 -37.55107 145.94450 17199 ft 277 kts 71°
2026-04-18 04:34 -37.54333 145.96658 17208 ft 276 kts 71°
2026-04-18 04:35 -37.53547 145.98880 17210 ft 286 kts 70°
2026-04-18 04:35 -37.52726 146.01194 17216 ft 291 kts 71°
2026-04-18 04:35 -37.51899 146.03538 17219 ft 294 kts 70°
2026-04-18 04:35 -37.51061 146.05901 17206 ft 297 kts 70°
2026-04-18 04:36 -37.50212 146.08289 17204 ft 299 kts 70°
2026-04-18 04:36 -37.49363 146.10675 17200 ft 299 kts 70°
2026-04-18 04:36 -37.48506 146.13067 17215 ft 300 kts 71°
2026-04-18 04:36 -37.47666 146.15469 17209 ft 299 kts 71°
2026-04-18 04:37 -37.46815 146.17864 17194 ft 299 kts 70°
2026-04-18 04:37 -37.45952 146.20256 17197 ft 300 kts 70°
2026-04-18 04:37 -37.45097 146.22652 17197 ft 300 kts 70°
2026-04-18 04:37 -37.44244 146.25051 17201 ft 301 kts 70°
2026-04-18 04:38 -37.43389 146.27454 17189 ft 301 kts 70°
2026-04-18 04:38 -37.42529 146.29855 17195 ft 301 kts 71°
2026-04-18 04:38 -37.41959 146.31446 17194 ft 302 kts 70°
2026-04-18 04:38 -37.41098 146.33855 17189 ft 302 kts 70°
2026-04-18 04:39 -37.39943 146.37080 17181 ft 302 kts 70°
2026-04-18 04:39 -37.39090 146.39456 17179 ft 301 kts 70°
2026-04-18 04:39 -37.38507 146.41082 17172 ft 302 kts 70°
2026-04-18 04:39 -37.37640 146.43494 17171 ft 303 kts 71°
2026-04-18 04:40 -37.36493 146.46692 17167 ft 303 kts 70°
2026-04-18 04:40 -37.35917 146.48295 17169 ft 303 kts 70°
2026-04-18 04:40 -37.35048 146.50705 17186 ft 303 kts 70°
2026-04-18 04:40 -37.34177 146.53125 17164 ft 304 kts 70°
2026-04-18 04:41 -37.33307 146.55543 17166 ft 303 kts 70°
2026-04-18 04:41 -37.32438 146.57948 17160 ft 303 kts 70°
2026-04-18 04:41 -37.31566 146.60364 17159 ft 303 kts 71°
2026-04-18 04:41 -37.30724 146.62685 17156 ft 270 kts 70°
2026-04-18 04:42 -37.29960 146.64755 16620 ft 264 kts 71°
2026-04-18 04:42 -37.29211 146.66843 16138 ft 260 kts 71°
2026-04-18 04:42 -37.28460 146.68933 15909 ft 263 kts 71°
2026-04-18 04:42 -37.27708 146.70992 15837 ft 257 kts 71°
2026-04-18 04:43 -37.26967 146.73043 15514 ft 258 kts 71°
2026-04-18 04:43 -37.26228 146.75089 15277 ft 258 kts 71°
2026-04-18 04:43 -37.25484 146.77138 14982 ft 256 kts 71°
2026-04-18 04:43 -37.24748 146.79158 14733 ft 254 kts 71°
2026-04-18 04:44 -37.24013 146.81182 14487 ft 254 kts 71°
2026-04-18 04:44 -37.23283 146.83194 14239 ft 252 kts 71°
2026-04-18 04:44 -37.22555 146.85194 13957 ft 252 kts 70°
2026-04-18 04:44 -37.21821 146.87195 13677 ft 252 kts 71°
2026-04-18 04:45 -37.21100 146.89184 13447 ft 250 kts 71°
2026-04-18 04:45 -37.20391 146.91138 13197 ft 248 kts 70°
2026-04-18 04:45 -37.19668 146.93097 12950 ft 247 kts 71°
2026-04-18 04:45 -37.18956 146.95050 12721 ft 245 kts 71°
2026-04-18 04:46 -37.18249 146.96999 12464 ft 245 kts 71°
2026-04-18 04:46 -37.17541 146.98931 12209 ft 243 kts 70°
2026-04-18 04:46 -37.16839 147.00846 11952 ft 241 kts 71°
2026-04-18 04:46 -37.16141 147.02762 11725 ft 241 kts 70°
2026-04-18 04:47 -37.15441 147.04665 11484 ft 240 kts 70°
2026-04-18 04:47 -37.14750 147.06559 11257 ft 238 kts 70°
2026-04-18 04:47 -37.14055 147.08441 11023 ft 238 kts 70°
2026-04-18 04:47 -37.13365 147.10312 10785 ft 235 kts 70°
2026-04-18 04:48 -37.12726 147.12188 10563 ft 231 kts 81°
2026-04-18 04:48 -37.12756 147.14090 10222 ft 211 kts 118°
2026-04-18 04:48 -37.13497 147.15621 9696 ft 204 kts 136°
2026-04-18 04:48 -37.14376 147.17001 9215 ft 202 kts 137°
2026-04-18 04:49 -37.15255 147.18348 8712 ft 201 kts 136°
2026-04-18 04:49 -37.16140 147.19715 8416 ft 202 kts 135°
2026-04-18 04:49 -37.16992 147.21102 8268 ft 200 kts 134°
2026-04-18 04:49 -37.17834 147.22475 8186 ft 197 kts 134°
2026-04-18 04:50 -37.18687 147.23822 8071 ft 198 kts 136°
2026-04-18 04:50 -37.19541 147.25183 7822 ft 198 kts 135°
2026-04-18 04:50 -37.20374 147.26561 7542 ft 198 kts 134°
2026-04-18 04:50 -37.21215 147.27930 7275 ft 198 kts 135°
2026-04-18 04:51 -37.22059 147.29301 7073 ft 197 kts 134°
2026-04-18 04:51 -37.22885 147.30662 6937 ft 197 kts 129°
2026-04-18 04:51 -37.23332 147.32328 6841 ft 209 kts 98°
2026-04-18 04:51 -37.22967 147.34094 6701 ft 215 kts 60°
2026-04-18 04:52 -37.21960 147.35490 6508 ft 216 kts 45°
2026-04-18 04:52 -37.20852 147.36747 6296 ft 213 kts 43°
2026-04-18 04:52 -37.19760 147.37976 6167 ft 208 kts 44°
2026-04-18 04:52 -37.18690 147.39161 6179 ft 205 kts 43°
2026-04-18 04:53 -37.17618 147.40340 6170 ft 205 kts 43°
2026-04-18 04:53 -37.16580 147.41527 6160 ft 203 kts 44°
2026-04-18 04:53 -37.15553 147.42718 6167 ft 201 kts 43°
2026-04-18 04:53 -37.14528 147.43899 6160 ft 198 kts 43°
2026-04-18 04:54 -37.13506 147.45063 6154 ft 200 kts 43°
2026-04-18 04:54 -37.12441 147.46182 6155 ft 200 kts 28°
2026-04-18 04:54 -37.11117 147.46522 6147 ft 195 kts 349°
2026-04-18 04:54 -37.09959 147.45802 6146 ft 183 kts 307°
2026-04-18 04:55 -37.09316 147.44475 6158 ft 177 kts 293°
2026-04-18 04:55 -37.08814 147.43114 6101 ft 167 kts 285°
2026-04-18 04:55 -37.08460 147.41762 5947 ft 152 kts 286°
2026-04-18 04:56 -37.07838 147.39513 5517 ft 137 kts 286°
2026-04-18 04:56 -37.07387 147.38446 5279 ft 138 kts 297°
2026-04-18 04:56 -37.06948 147.37556 5031 ft 105 kts 302°
2026-04-18 04:56 -37.06567 147.36816 4807 ft 102 kts 297°
2026-04-18 04:57 -37.06194 147.36101 4635 ft 95 kts 301°
2026-04-18 04:57 -37.05806 147.35393 4570 ft 103 kts 298°
2026-04-18 04:57 -37.05405 147.34628 4384 ft 106 kts 298°
2026-04-18 04:57 -37.05006 147.33872 4262 ft 94 kts 302°
2026-04-18 04:58 -37.04695 147.33288 4268 ft 62 kts 303°
2026-04-18 04:58 -37.04554 147.33023 4277 ft 27 kts 303°
2026-04-18 04:58 -37.04481 147.32854 4286 ft 12 kts 299°
2026-04-18 04:58 -37.04483 147.32896 4285 ft 19 kts 133°
2026-04-18 04:59 -37.04599 147.33103 4276 ft 37 kts 123°
2026-04-18 04:59 -37.04760 147.33406 4264 ft 46 kts 124°
2026-04-18 04:59 -37.04886 147.33623 4258 ft 12 kts 178°
2026-04-18 04:59 -37.04973 147.33630 4256 ft 22 kts 127°
2026-04-18 05:00 -37.05054 147.33785 4256 ft 11 kts 124°
2026-04-18 05:00 -37.05089 147.33823 4256 ft 4 kts 131°
2026-04-18 05:00 -37.05108 147.33858 4256 ft 6 kts 271°
2026-04-18 05:00 -37.05112 147.33833 4256 ft 0 kts 255°
2026-04-18 05:01 -37.05117 147.33818 4256 ft 0 kts 249°